World > North America > United States > Ohio

Hourly Valley City, OH Regional Weather

Feedback E-mail the Weather

Quick WX

Valley City, OH Weather Maps

°F °C°F °C
Valley City Weather Map
UTC Time: 7/7/2022, 04:30
Your Time:

Valley City, OH Regional Weather

Expires:202207070500;;877407
ASUS41 KCLE 070412
RWRCLE
OHIO REGIONAL WEATHER ROUNDUP
NATIONAL WEATHER SERVICE WILMINGTON, OH
1200 AM EDT THU JUL 07 2022

NOTE: "FAIR" INDICATES FEW OR NO CLOUDS BELOW 12,000 FEET WITH NO
SIGNIFICANT WEATHER AND/OR OBSTRUCTIONS TO VISIBILITY.


OHZ009>014-019>023-028>033-038-089-070500-
   NORTHEAST OHIO
  
CITY           SKY/WX    TMP DP  RH WIND       PRES   REMARKS
CLE-HOPKINS    MOCLDY    70  61  73 NE9       29.99F                  
CLE-LAKEFRONT  FAIR      71  62  73 E5        29.99F                  
CUY CO. ARPT   FAIR      66  62  86 E5        30.03S                  
LORAIN-ELYRIA  FAIR      67  63  87 N6        30.01F                  
ASHTABULA      FAIR      64  60  87 CALM      30.03R                  
AKRON-CANTON   MOCLDY    71  64  78 NE7       29.99F                  
WOOSTER        FAIR      67  64  90 N5        30.01S                  
MANSFIELD      FAIR      67  64  90 N9        30.01F                  
YOUNGSTOWN     MOCLDY    68  63  84 N7        30.00S                  
$$
 

SKY/WX - Weather  TMP - Temperature  DP - Dew Point  RH - Humidity
WIND - Wind Direction/Speed PRES - Barometric Pressure VSB - Visibility
WCI - Wind Chill Index E13G22 Wind - East Wind 13 mph/Gusts of 22 mph

Trending Headlines

Valley City Radar Loop



Valley City Quick Facts


National Two Day Weather Forecast


E-mail the Valley City Weather Forecast

Voice your opinion or tell us about page issues...